Regional Weather Roundup
Issued by NWS

Home | Current Version | Previous Version | Graphics & Text | Print | Product List | Glossary On
Versions: 1 2 3 4 5 6 7 8 9 10 11 12 13 14 15 16 17 18 19 20 21 22 23 24 25 26 27 28 29 30 31 32 33 34 35 36 37 38 39 40 41 42 43 44 45 46 47 48 49 50
000
ASUS43 KMPX 070610
RWRMN
WEATHER ROUNDUP FOR MINNESOTA
NATIONAL WEATHER SERVICE TWIN CITIES/CHANHASSEN MN
100 AM CDT THU MAY 07 2015


NOTE: "FAIR" INDICATES FEW OR NO CLOUDS BELOW 12,000 FEET WITH NO
SIGNIFICANT WEATHER AND/OR OBSTRUCTIONS TO VISIBILITY. N/A MEANS
CURRENT SKY AND/OR WEATHER CONDITIONS ARE NOT AVAILABLE.

MNZ060>063-068>070-070700-
   Twin Cities Metro

CITY           SKY/WX    TMP DP  RH WIND       PRES   REMARKS
TWIN CITIES    PTCLDY    65  58  78 SE12      29.86F
6HR MIN TEMP:  65; 6HR MAX TEMP:  71;

ST PAUL        PTCLDY    64  59  83 SE10      29.87F
CRYSTAL        PTCLDY    67  58  72 SE14      29.84S
BLAINE         PTCLDY    66  61  82 SE10      29.85F
LAKEVILLE      CLEAR     63  57  82 SE10      29.86F
EDEN PRAIRIE   CLEAR     65  58  78 SE12      29.84F
6HR MIN TEMP:  65; 6HR MAX TEMP:  72;

SOUTH ST PAUL  PTCLDY    65  58  79 SE6       29.87F
LAKE ELMO      FAIR      63  59  88 SE7       29.89F
$$
MNZ001>005-007-008-013>017-022>024-027-028-070700-
   Northwest Minnesota

CITY           SKY/WX    TMP DP  RH WIND       PRES   REMARKS
BEMIDJI        MOCLDY    58  56  96 SE9       29.78S
HALLOCK        CLOUDY    63  59  88 SE17      29.65F
ROSEAU         CLOUDY    61  55  82 SE14      29.72S
WARROAD        CLOUDY    59  55  88 SE15      29.74S
THIEF RVR FALL CLOUDY    63  59  88 SE13      29.71S
CROOKSTON      MOCLDY    64  61  88 S17       29.68S
FOSSTON        CLOUDY    63  57  82 SE10      29.74S
DETROIT LAKES  MOCLDY    63  61  94 SE10      29.75S
MOORHEAD       MOCLDY    64  59  82 SE15      29.68F
PARK RAPIDS    CLOUDY    63  60  90 SE13      29.77F
MAHNOMEN       CLOUDY    64  59  86 SE10      29.72F
$$
MNZ006-009>011-018-025>026-070700-
   North Central Minnesota

CITY           SKY/WX    TMP DP  RH WIND       PRES   REMARKS
BAUDETTE       CLOUDY    58  56  93 SE13      29.77F
FLAG ISLAND    CLOUDY    57  54  88 SE18      29.73F
INTL FALLS     MOCLDY    57  54  89 SE8       29.82F
6HR MIN TEMP:  57; 6HR MAX TEMP:  65; 6HR PCP:  0.08;

WASKISH        CLOUDY    59  57  94 SE10      29.78F
BIG FORK       LGT RAIN  57  54  88 SE6       29.84S
LONGVILLE      MOCLDY    55  54  94 SE5       29.82S
GRAND RAPIDS   CLOUDY    55  48  76 SE9       29.84F
CRANE LAKE     CLOUDY    59  52  77 SE5       29.87F
ORR            MOCLDY    59  52  77 SE9       29.84S
COOK           CLOUDY    61  52  72 SE8       29.87S
WALKER         CLOUDY    60  58  92 SE6       29.79F
$$
MNZ012-019>021-037-070700-
   Northeast Minnesota

CITY           SKY/WX    TMP DP  RH WIND       PRES   REMARKS
DULUTH         MOCLDY    52  45  77 E10       29.90F
6HR MIN TEMP:  52; 6HR MAX TEMP:  58;

ELY            CLOUDY    59  52  77 SE13G18   29.90F
HIBBING        MOCLDY    57  50  77 SE7       29.87S
EVELETH        MOCLDY    57  52  82 SE5       29.90S
DULUTH HARBOR    N/A     43  39  87 E6        29.93F
TWO HARBORS    CLOUDY    59  52  77 NE3       29.91F
SILVER BAY       N/A     54 N/A N/A N3        29.92
GRAND MARAIS     N/A     48  37  65 NE7       29.97S
G MARAIS ARPRT CLOUDY    55  43  62 SE6       29.99F
$$
MNZ029>031-032-039>041-046>048-054>057-064-070700-
   West Central Minnesota

CITY           SKY/WX    TMP DP  RH WIND       PRES   REMARKS
FERGUS FALLS   CLOUDY    64  59  82 SE17      29.72F
WHEATON        CLOUDY    61  57  88 SE14      29.71S
MORRIS         CLOUDY    64  59  82 SE16      29.71F
ALEXANDRIA     PTCLDY    62  59  90 SE10      29.77F
ELBOW LAKE     CLOUDY    64  59  86 SE15      29.72F
WADENA         MOCLDY    63  61  94 SE12      29.76F
GLENWOOD       PTCLDY    63  59  88 SE12      29.77F
APPLETON       PTCLDY    66  57  72 SE10      29.71S
BENSON         CLOUDY    64  57  77 S12G17    29.73F
ORTONVILLE     LGT RAIN  63  57  82 SE13G18   29.69F
MADISON        LGT RAIN  63  59  88 SE17      29.70F
WILLMAR        FAIR      64  57  77 SE15      29.77F
$$
MNZ033>034-036-042>043-049>051-058-059-070700-
   Central Minnesota

CITY           SKY/WX    TMP DP  RH WIND       PRES   REMARKS
ST CLOUD       PTCLDY    64  59  83 SE9       29.80F
6HR MIN TEMP:  64; 6HR MAX TEMP:  67;

SAUK CENTRE    MOCLDY    63  58  84 SE13      29.78F
PAYNESVILLE    MOCLDY    63  56  80 E12G20    29.79F
AITKIN         MOCLDY    64  57  77 SE9G17    29.81F
PINE RIVER     MOCLDY    59  57  94 SE8       29.84S
BRAINERD       MOCLDY    65  59  81 S13       29.81F
STAPLES        MOCLDY    63  61  94 SE7       29.78F
LONG PRAIRIE   MOCLDY    63  59  88 SE9       29.78F
LITTLE FALLS   PTCLDY    63  59  88 SE8       29.80F
LITCHFIELD     PTCLDY    66  61  82 SE9G18    29.80S
BUFFALO        PTCLDY    65  56  72 SE9G20    29.83F
MAPLE LAKE     CLEAR     66  59  79 SE8       29.83S
$$
MNZ037-044-045-052-053-070700-
   East Central Minnesota

CITY           SKY/WX    TMP DP  RH WIND       PRES   REMARKS
PRINCETON      PTCLDY    66  61  82 SE8       29.84S
MORA           CLOUDY    64  59  82 SE7       29.87S
CAMBRIDGE      MOCLDY    68  55  64 SE7       29.84S
RUSH CITY      CLOUDY    65  58  79 SE10G16   29.87S
MOOSE LAKE     PTCLDY    45  37  76 NE3       29.86F
HINCKLEY       FAIR      64  59  82 SE6       29.86F
CLOQUET        PTCLDY    46  37  71 E7        29.89F
MCGREGOR       MOCLDY    54  50  87 E6        29.86S
$$
MNZ071>073-080-081-089-090-097-098-070700-
   Southwest Minnesota

CITY           SKY/WX    TMP DP  RH WIND       PRES   REMARKS
MONTEVIDEO     RAIN      64  59  82 S14G23    29.73S
GRANITE FALLS  LGT RAIN  64  58  80 SE16G25   29.75S
CANBY          CLOUDY    63  59  88 SE15G22   29.70F
MARSHALL       MOCLDY    64  55  72 S21       29.71F
REDWOOD FALLS  CLOUDY    66  58  75 SE20      29.75F
OLIVIA         PTCLDY    61  55  82 SE17      29.75F
PIPESTONE      CLOUDY    63  57  82 S13G23    29.70S
WINDOM         MOCLDY    64  57  77 SE16G25   29.77R
WORTHINGTON    CLOUDY    63  55  77 SE20G26   29.73F
JACKSON        RAIN      63  57  82 SE15G23   29.77S
TRACY          CLOUDY    64  60  87 S14G25    29.73F
SLAYTON        CLOUDY    62  60  92 SE20      29.72F
$$
MNZ065>067-074>077-082>085-091>093-070700-
   South Central Minnesota

CITY           SKY/WX    TMP DP  RH WIND       PRES   REMARKS
MANKATO        PTCLDY    64  57  77 SE16      29.82F
NEW ULM        CLOUDY    64  57  77 SE15      29.78F
ST JAMES       CLOUDY    66  57  72 SE16G23   29.79F
FAIRMONT       MOCLDY    64  36  34 SE22G29   29.78S
GLENCOE        CLEAR     65  60  81 SE13      29.81S
FARIBAULT      CLEAR     64  59  82 SE13G18   29.86F
OWATONNA       CLEAR     64  57  77 SE13      29.86F
WASECA         CLEAR     63  55  77 SE13      29.85F
ALBERT LEA     PTCLDY    64  57  77 SE14G21   29.85F
$$
MNZ078>079-086>088-094>096-070700-
   Southeast Minnesota

CITY           SKY/WX    TMP DP  RH WIND       PRES   REMARKS
ROCHESTER      CLEAR     63  57  81 S13       29.91F
6HR MIN TEMP:  62; 6HR MAX TEMP:  68;

RED WING       MOCLDY    64  59  82 SE8       29.89S
STANTON        CLEAR     65  58  76 SE10G17   29.86S
DODGE CENTER   PTCLDY    63  57  82 SE12      29.89F
WINONA         PTCLDY    61  57  88 SE5       29.93F
AUSTIN         PTCLDY    63  57  82 SE9       29.87F
PRESTON        PTCLDY    62  56  81 SE10      29.92F
$$
ABBREVIATIONS USED IN REMARKS
   TC - TEMPERATURES IN CELSIUS
  WCI - WIND CHILL INDEX
   HX - HEAT INDEX
  VSB - VISIBILITY
$$


USA.gov is the U.S. government's official web portal to all federal, state and local government web resources and services.